VIZARD-METEO (RS38S)

Last updated on Wed Sep 17 2025 00:03:09 GMT+0000 (Coordinated Universal Time)

1 57189U 23091Z 25259.57912810 .00013916 00000+0 54841-3 0 9995 2 57189 97.5503 320.0112 0007836 328.4874 31.5894 15.25680527122826
UTC large
Height (km)
Speed (km/s)
/
Latitude / Longitude
Inclination (degrees)
Orbital Period (minutes)
Azimuth
Elevation
Range (km)
Doppler Factor

Next 0 passes for location: London (51.5072 / 0.1276)

Sorry there are no passes over London.